Temperature
15 15 16 16 16 16 15 14 14 14 14 15 14 14 15 15 15 15 15 15 15 15 15 15 14 14 14 14 14 13 13 13 13 12 12 12 12 12 12 12 11 11 11 11
15 15 15 16 16 16 16 15 15 15 14 15 15 15 15 15 15 15 15 15 15 14 14 14 14 14 14 14 13 13 13 13 12 12 12 11 11 11 11 11 11 11 11 11
13 14 15 14 15 15 15 15 15 14 14 15 14 14 14 15 15 15 15 14 14 14 14 14 14 14 13 13 13 13 13 13 12 12 11 11 11 11 11 11 10 10 10 10
12 13 13 14 15 15 15 15 15 15 14 14 14 15 15 15 15 15 14 14 14 14 14 14 13 13 13 13 13 13 12 12 12 11 11 11 11 11 10 10 10 10 10 10
11 12 13 14 15 15 14 14 14 14 14 15 15 14 14 15 15 15 15 14 14 14 14 13 13 13 13 13 12 12 12 12 11 11 11 11 10 10 10 10 10 10 9 9
11 12 12 13 15 16 15 13 14 14 14 14 14 12 13 15 15 15 14 14 14 14 13 13 13 12 12 12 12 12 11 11 11 11 10 10 10 10 10 9 9 9 9 9
10 11 12 13 14 15 13 13 14 15 14 14 13 13 15 15 14 14 14 14 13 13 13 12 12 12 12 12 11 11 11 11 11 10 10 10 9 9 9 9 9 8 8 8
10 10 12 13 13 13 13 14 14 15 15 14 14 14 14 14 14 14 13 13 13 13 12 12 12 12 11 11 11 11 11 10 10 10 10 9 9 9 8 8 8 8 8 7
10 11 12 13 13 14 14 14 14 14 14 14 14 14 14 13 13 13 13 13 12 12 12 12 11 11 11 11 11 10 10 10 10 9 9 9 9 8 8 8 8 7 7 7
10 10 12 13 13 13 14 13 13 13 14 14 13 13 13 13 13 12 12 12 12 12 11 11 11 11 11 10 10 10 10 9 9 9 8 8 8 8 7 7 7 7 7 7
9 10 11 12 13 13 13 13 13 13 13 13 13 12 12 12 12 12 12 12 11 11 11 11 11 10 10 10 10 9 9 9 9 8 8 8 8 7 7 7 7 7 6 6
9 10 10 11 12 12 12 12 12 12 12 12 12 12 12 12 11 11 11 11 11 11 11 10 10 10 10 10 9 9 9 8 8 8 7 7 7 7 7 6 6 6 6 6
12 12 11 11 11 12 12 12 12 11 11 11 11 11 11 11 11 11 11 11 11 10 10 10 10 10 9 9 9 9 8 8 8 7 7 7 7 7 6 6 6 6 6 5
11 11 11 11 11 11 11 11 11 11 11 11 11 11 11 10 10 10 10 10 10 10 10 10 9 9 9 9 8 8 8 8 7 7 7 7 7 6 6 6 6 6 6 5
11 11 11 11 11 11 10 10 10 10 10 10 10 10 10 10 10 10 10 10 9 9 9 9 9 9 9 8 8 8 8 7 7 7 7 6 6 6 6 6 6 5 5 5
10 10 10 10 10 10 10 10 10 9 9 9 10 10 10 9 9 9 9 9 9 9 9 9 8 8 8 8 8 7 7 7 7 6 6 6 6 6 5 5 5 5 5 5
9 9 9 9 9 9 9 9 9 9 9 9 9 9 9 9 9 9 9 9 9 8 8 8 8 8 8 8 7 7 7 7 6 6 6 6 5 5 5 5 5 5 4 4
9 9 9 9 9 8 8 8 8 8 9 9 9 9 9 9 8 8 8 8 8 8 8 8 8 8 7 7 7 7 7 6 6 6 6 5 5 5 5 5 4 4 4 4
8 8 8 8 8 8 8 8 8 8 8 8 8 8 8 8 8 8 8 8 8 8 7 7 7 7 7 7 7 6 6 6 6 6 5 5 5 5 4 4 4 4 4 3
8 8 8 7 7 7 7 7 8 8 8 8 8 8 8 8 8 7 7 7 7 7 7 7 7 7 7 6 6 6 6 6 6 5 5 5 4 4 4 4 4 3 3 3
7 7 7 7 7 7 7 7 7 7 7 7 7 7 7 7 7 7 7 7 7 7 7 7 6 6 6 6 6 6 5 5 5 5 5 4 4 4 4 3 3 3 3 3
7 7 6 6 6 6 7 7 7 7 7 7 7 7 7 7 6 6 6 6 6 6 6 6 6 6 6 6 5 5 5 5 5 4 4 4 4 4 3 3 3 3 2 2
6 6 6 6 6 6 6 6 6 6 6 6 6 6 6 6 6 6 6 6 6 6 6 6 6 5 5 5 5 5 5 4 4 4 4 4 3 3 3 3 3 2 2 2
6 6 6 6 6 6 6 6 6 6 6 6 6 6 6 6 6 6 6 6 5 5 5 5 5 5 5 5 5 4 4 4 4 4 3 3 3 3 2 2 2 2 2 1
6 5 5 5 5 5 5 5 5 5 5 5 5 5 5 5 5 5 5 5 5 5 5 5 5 5 4 4 4 4 4 4 3 3 3 3 2 2 2 2 2 1 1 1
5 5 5 5 5 5 5 5 5 5 4 5 5 5 5 5 4 4 4 4 4 4 4 4 4 4 4 4 4 4 3 3 3 3 3 2 2 2 1 1 1 1 1 1
5 5 4 4 4 4 4 4 4 4 4 4 4 4 4 4 4 4 4 4 4 4 4 4 3 3 3 3 3 3 3 3 2 2 2 2 1 1 1 1 1 0 0 0
Wind_Speed
6 6 3 4 4 4 5 6 7 6 6 6 6 5 4 2 2 3 3 3 3 3 3 3 3 3 4 5 4 4 5 4 4 3 2 2 2 1 1 1 2 2 2 2
4 4 2 3 4 5 6 5 5 4 5 6 4 2 1 1 2 3 2 3 3 3 3 3 4 4 4 4 4 5 6 5 4 3 2 2 2 2 1 1 1 1 1 2
4 4 3 4 4 4 3 3 5 6 7 3 1 1 2 4 4 4 4 3 3 4 4 4 4 4 4 5 4 4 4 4 3 3 2 3 3 2 2 1 1 1 0 1
2 1 4 6 3 3 3 3 2 3 2 3 3 4 4 5 5 5 4 3 3 3 3 3 3 2 3 3 4 4 4 4 3 3 3 2 2 2 2 2 2 1 1 0
2 3 5 5 3 1 2 2 1 2 2 3 2 1 3 3 3 5 5 4 4 4 3 2 2 2 2 3 3 4 4 4 4 4 3 3 3 2 2 2 2 2 2 1
2 3 5 5 6 3 2 2 4 1 2 2 1 1 5 5 3 3 3 2 2 2 1 1 2 3 3 3 3 4 5 5 4 4 4 4 3 2 2 2 2 1 1 1
3 4 5 5 5 2 2 6 4 1 1 1 2 5 6 4 3 3 2 1 1 1 2 2 2 3 3 3 4 4 4 3 3 3 4 4 3 2 2 2 2 1 1 0
2 3 5 4 1 2 5 3 2 1 1 1 3 4 3 2 2 1 1 1 2 2 1 1 2 4 3 3 4 3 3 3 3 2 2 3 3 2 2 2 2 1 0 1
5 5 5 2 2 2 1 1 1 1 2 1 2 2 2 1 1 1 1 1 1 2 1 1 1 3 4 3 2 3 3 3 2 2 2 3 4 3 2 2 2 1 1 1
2 4 5 4 3 3 1 1 3 2 2 1 1 2 1 1 1 1 1 1 1 1 1 2 2 2 2 2 2 3 3 3 2 2 2 1 2 3 3 3 3 2 2 2
3 5 5 6 5 3 3 3 3 4 3 1 1 1 2 1 2 2 2 2 2 2 3 3 2 2 1 2 3 3 3 3 3 2 2 2 2 2 4 4 4 4 4 3
6 6 4 7 7 4 3 3 2 3 4 3 1 2 2 2 2 2 2 2 2 2 3 3 3 3 2 2 4 4 3 3 2 2 2 2 2 1 2 3 4 5 5 5
6 6 5 6 6 4 3 3 2 2 3 4 3 2 1 2 2 2 2 2 3 3 3 3 3 3 3 3 4 4 5 4 3 3 3 3 3 3 2 1 1 3 4 5
4 3 3 4 4 3 2 2 2 3 3 3 3 2 2 2 2 2 3 3 2 2 2 2 3 3 3 3 4 4 4 5 4 3 3 4 4 3 3 3 2 2 2 4
4 3 3 3 2 2 2 2 2 3 4 4 3 2 2 2 3 3 3 2 1 1 2 2 3 3 3 3 4 4 4 3 3 3 3 3 3 3 2 3 2 2 1 2
3 2 2 1 2 3 3 2 2 4 4 4 3 3 3 3 3 3 2 1 1 2 2 3 4 4 3 3 3 3 3 4 4 3 3 3 2 2 2 2 2 2 2 2
1 3 3 3 3 4 4 3 3 3 4 4 4 3 3 3 3 3 3 2 2 3 3 3 3 2 2 3 3 3 2 3 4 3 3 3 3 3 3 3 3 2 3 3
3 4 3 4 4 4 4 4 3 3 3 4 4 3 2 2 3 4 4 3 2 2 2 2 2 2 2 2 3 2 2 3 3 3 3 2 2 2 2 2 3 2 2 2
3 3 3 3 3 3 4 4 4 4 4 3 3 3 4 3 3 3 2 1 1 2 3 2 2 2 2 3 3 2 3 3 2 2 2 3 2 2 2 2 2 2 2 1
3 3 3 3 3 3 4 4 4 4 4 3 2 3 4 4 3 2 2 2 3 3 3 2 2 2 2 3 2 2 3 3 3 2 2 2 2 2 2 2 2 2 2 2
4 4 3 4 4 4 4 4 3 4 4 3 2 3 4 4 3 1 1 3 3 2 1 1 1 2 2 2 2 2 3 3 3 3 3 2 2 2 2 2 2 2 2 2
4 4 4 5 4 5 5 4 4 4 4 3 3 3 3 3 3 2 2 3 3 2 1 1 1 2 1 2 2 2 3 3 3 2 2 3 3 3 3 2 2 2 2 2
3 4 4 4 4 5 4 4 4 3 3 3 3 3 3 3 2 2 3 2 2 1 1 1 1 1 1 2 2 2 2 3 3 3 3 3 3 3 3 3 2 2 2 2
3 3 4 4 3 3 4 5 4 3 3 3 3 3 2 2 2 2 2 2 2 2 1 1 1 1 2 2 2 2 2 2 2 2 2 2 2 2 2 2 2 1 1 1
3 3 3 3 3 3 4 4 3 3 2 2 3 3 2 2 2 2 1 1 2 1 0 1 1 1 1 2 2 2 2 2 2 2 2 2 2 2 2 2 2 1 1 1
3 3 3 3 3 3 2 2 2 2 2 2 3 3 2 2 1 1 1 1 1 0 0 0 0 1 1 1 1 1 1 1 1 1 2 2 2 2 2 2 2 1 1 1
2 2 3 3 3 2 2 2 2 2 2 2 2 3 2 2 1 1 0 1 1 1 1 1 1 1 1 1 1 1 1 1 1 1 1 1 2 2 2 2 2 1 1 1
Wind_Direction
241 246 228 226 236 217 198 196 202 230 225 246 248 235 228 225 184 149 166 176 187 199 211 217 218 216 210 204 200 185 176 183 196 200 195 182 179 181 158 146 165 169 161 170
282 268 256 254 256 233 227 217 212 217 241 251 238 211 218 221 176 175 191 200 206 206 207 214 217 218 214 206 199 175 175 190 187 178 183 187 182 162 145 127 123 121 153 176
265 292 336 279 256 224 223 231 193 213 235 252 229 194 213 212 192 194 217 223 220 218 216 224 225 212 207 207 185 165 173 175 171 171 181 192 182 154 153 158 121 104 163 178
241 3 242 250 263 206 204 249 208 197 224 211 220 223 220 200 190 207 221 218 225 224 222 229 230 225 207 184 167 163 167 169 170 168 180 178 159 162 176 165 157 160 165 198
164 221 264 285 293 228 190 261 298 197 247 250 253 17 318 269 216 206 205 200 205 211 211 209 215 204 165 156 156 159 168 177 180 176 172 166 173 186 185 160 160 164 160 152
158 195 234 255 275 267 118 276 301 244 231 263 55 339 280 273 248 230 209 198 199 200 172 181 206 165 149 161 161 183 189 187 180 173 171 177 185 186 168 154 163 154 140 170
191 222 257 271 289 60 146 250 281 238 213 208 208 233 259 263 231 214 197 195 175 156 179 205 188 156 158 169 198 207 190 175 170 179 176 171 162 160 148 141 127 128 134 278
171 205 257 301 58 168 235 263 268 240 203 221 257 273 281 253 228 210 176 161 148 149 204 224 183 162 173 205 219 193 168 160 163 172 174 157 146 150 145 141 137 157 161 320
197 219 264 291 232 269 253 301 298 280 260 234 287 299 305 281 252 242 193 180 171 165 181 264 230 178 186 219 212 175 157 159 162 164 163 157 158 162 163 163 167 196 199 233
255 276 297 312 329 337 345 318 309 315 296 276 271 290 309 297 269 271 252 211 196 161 180 237 248 227 204 202 181 163 162 166 169 165 163 158 167 174 182 191 193 205 212 226
269 289 318 313 309 310 326 344 349 342 330 303 182 255 254 270 260 247 250 237 205 197 212 229 226 228 204 177 161 159 164 173 173 170 172 178 191 204 203 213 202 200 212 208
240 247 248 275 284 289 301 313 320 340 339 321 271 258 258 270 272 261 257 251 231 228 227 228 216 215 212 185 166 163 172 183 188 188 192 193 193 238 254 223 220 210 207 206
241 256 254 264 281 296 291 307 318 332 331 321 312 299 288 284 286 278 268 247 225 225 230 224 206 208 212 190 175 176 187 195 196 195 196 199 199 194 220 277 242 216 215 215
260 265 281 274 275 293 297 304 327 339 331 318 317 325 325 313 307 298 265 242 231 224 226 207 202 219 213 189 185 190 192 196 195 199 201 201 203 201 195 193 213 265 253 229
278 254 250 273 298 310 302 330 352 337 330 326 330 334 329 311 297 288 281 268 246 233 237 212 212 229 215 187 187 193 192 194 190 189 191 191 188 183 185 191 200 217 253 273
298 312 307 303 301 306 314 322 318 304 305 302 307 309 298 290 292 303 307 273 199 233 241 227 226 232 207 187 188 196 202 198 182 178 178 177 176 178 188 196 202 204 218 238
313 310 309 299 291 288 285 283 283 287 299 300 292 294 304 317 325 316 307 289 243 235 233 228 228 222 193 186 184 193 191 189 177 174 178 180 180 192 198 196 202 212 231 236
240 246 250 253 265 281 290 289 288 292 287 284 292 305 308 299 291 289 291 298 311 316 288 252 211 185 188 188 178 177 177 178 180 178 181 186 190 192 190 192 200 211 243 251
280 278 283 287 283 276 278 283 279 277 282 282 289 292 289 282 280 283 289 287 255 268 273 257 184 158 190 200 168 171 172 170 171 177 178 180 178 184 190 196 206 209 203 202
282 295 305 302 300 292 283 283 282 282 280 277 281 291 298 298 296 286 274 258 248 247 240 211 170 179 198 201 167 169 172 171 173 176 170 174 185 193 197 197 199 197 194 207
275 285 293 296 295 291 281 280 286 290 288 283 274 273 278 285 286 269 264 283 290 283 221 206 185 198 196 190 164 166 169 171 173 177 178 180 183 182 188 194 200 210 211 220
278 280 282 287 290 293 291 286 285 288 288 283 275 278 286 292 293 283 257 252 266 277 221 214 212 205 201 172 158 161 164 165 168 169 172 178 185 193 202 206 214 225 223 224
275 278 283 286 282 282 294 299 292 284 279 275 267 267 268 270 263 256 283 285 270 272 239 229 236 198 173 138 148 160 168 169 171 176 183 188 193 197 202 206 212 219 226 233
287 285 287 294 300 302 301 300 297 289 284 282 272 261 252 270 289 271 260 268 284 282 238 238 238 186 128 132 149 162 171 177 180 184 183 182 186 190 194 196 203 214 231 246
281 285 300 307 293 280 279 291 309 313 314 313 308 301 286 247 250 274 287 272 275 272 257 253 237 125 115 136 146 159 174 183 181 176 172 176 184 186 194 201 208 218 230 246
281 276 273 269 266 273 281 291 302 308 312 314 315 315 316 313 298 294 286 297 308 6 58 78 77 81 98 121 137 145 140 158 173 168 174 182 185 188 197 206 211 217 222 244
302 300 298 304 303 294 284 272 267 281 282 278 296 305 312 323 337 353 20 59 48 48 41 37 74 104 104 115 121 124 126 136 147 161 182 193 198 200 202 203 209 219 226 237
Height
1521 1517 1516 1517 1516 1516 1520 1523 1528 1524 1521 1516 1512 1511 1510 1509 1509 1509 1509 1510 1510 1510 1510 1511 1511 1511 1512 1512 1513 1513 1514 1514 1514 1514 1514 1514 1514 1514 1514 1514 1514 1514 1514 1514
1520 1515 1515 1516 1514 1513 1514 1515 1517 1517 1517 1510 1509 1509 1509 1508 1508 1507 1507 1508 1508 1508 1508 1508 1508 1508 1509 1508 1510 1511 1511 1511 1512 1512 1512 1512 1512 1512 1512 1512 1512 1512 1511 1511
1527 1519 1517 1522 1514 1512 1512 1510 1511 1515 1512 1507 1507 1507 1506 1506 1505 1505 1505 1505 1505 1505 1505 1505 1505 1505 1505 1505 1506 1507 1508 1508 1509 1509 1509 1509 1509 1509 1509 1509 1509 1509 1508 1508
1529 1525 1530 1518 1507 1506 1508 1507 1506 1506 1505 1505 1504 1503 1504 1503 1503 1503 1503 1502 1502 1502 1502 1502 1502 1502 1503 1503 1503 1504 1505 1505 1506 1506 1507 1507 1507 1507 1507 1507 1507 1506 1506 1505
1530 1530 1524 1513 1506 1505 1508 1509 1505 1504 1503 1502 1502 1502 1502 1501 1501 1500 1500 1499 1500 1500 1500 1499 1500 1500 1500 1500 1501 1501 1501 1502 1503 1504 1504 1504 1504 1504 1504 1504 1504 1504 1503 1503
1528 1527 1527 1514 1504 1501 1504 1510 1503 1502 1501 1501 1501 1505 1501 1499 1498 1498 1497 1497 1497 1497 1497 1497 1497 1497 1497 1497 1498 1498 1499 1500 1500 1501 1501 1501 1501 1501 1501 1502 1501 1501 1501 1500
1526 1526 1518 1508 1502 1501 1514 1511 1502 1500 1500 1499 1499 1500 1498 1496 1496 1495 1495 1495 1495 1494 1494 1494 1494 1494 1494 1494 1495 1496 1496 1497 1497 1498 1498 1498 1498 1498 1499 1499 1499 1498 1498 1498
1526 1527 1521 1505 1503 1506 1506 1501 1500 1499 1498 1498 1497 1496 1495 1494 1493 1493 1492 1492 1492 1492 1491 1492 1491 1491 1491 1491 1492 1493 1493 1493 1494 1495 1495 1495 1495 1495 1495 1496 1496 1495 1495 1495
1518 1516 1507 1504 1503 1502 1501 1500 1499 1498 1497 1496 1495 1494 1492 1491 1491 1490 1490 1490 1490 1489 1489 1489 1489 1488 1487 1488 1489 1490 1490 1491 1491 1492 1492 1492 1492 1492 1492 1492 1492 1492 1492 1492
1512 1508 1505 1503 1502 1501 1500 1499 1498 1497 1495 1494 1493 1492 1490 1489 1488 1488 1488 1487 1487 1486 1486 1486 1486 1485 1485 1485 1486 1486 1487 1488 1488 1489 1489 1489 1490 1490 1489 1489 1489 1489 1489 1488
1512 1507 1504 1502 1501 1500 1499 1498 1496 1495 1493 1492 1490 1490 1489 1487 1486 1486 1485 1484 1484 1483 1483 1483 1483 1482 1482 1482 1483 1483 1484 1484 1485 1485 1486 1486 1486 1486 1486 1486 1486 1486 1486 1486
1509 1505 1504 1502 1500 1499 1497 1495 1494 1493 1491 1490 1489 1487 1486 1485 1484 1483 1482 1482 1481 1480 1480 1479 1479 1479 1479 1479 1480 1480 1480 1481 1481 1482 1482 1482 1483 1483 1483 1483 1483 1484 1484 1484
1502 1501 1500 1499 1498 1497 1495 1493 1492 1491 1489 1488 1487 1485 1484 1482 1481 1480 1479 1478 1477 1477 1476 1476 1475 1475 1475 1476 1476 1476 1476 1477 1478 1478 1479 1479 1479 1479 1479 1480 1480 1480 1480 1480
1499 1498 1497 1496 1495 1494 1492 1491 1490 1488 1487 1486 1485 1483 1481 1480 1478 1477 1476 1475 1474 1473 1473 1472 1472 1472 1472 1472 1472 1473 1473 1474 1474 1474 1475 1475 1475 1475 1475 1475 1476 1475 1476 1476
1497 1496 1495 1493 1492 1491 1490 1489 1487 1486 1484 1483 1482 1480 1479 1477 1475 1474 1473 1472 1471 1470 1469 1469 1468 1468 1468 1468 1469 1469 1469 1470 1470 1471 1471 1471 1472 1472 1472 1472 1472 1472 1472 1472
1494 1493 1492 1491 1490 1489 1488 1486 1485 1483 1482 1481 1479 1478 1476 1475 1473 1471 1470 1469 1467 1466 1466 1465 1465 1465 1465 1465 1465 1465 1465 1466 1466 1467 1467 1468 1468 1468 1468 1469 1469 1469 1468 1468
1491 1489 1489 1488 1487 1486 1485 1483 1482 1481 1479 1478 1476 1475 1474 1472 1470 1468 1467 1466 1465 1464 1463 1462 1461 1461 1461 1461 1461 1461 1462 1462 1463 1463 1464 1464 1464 1464 1465 1465 1465 1465 1465 1465
1488 1487 1486 1485 1484 1482 1481 1480 1479 1478 1476 1475 1473 1472 1470 1468 1467 1465 1464 1462 1461 1460 1459 1459 1458 1458 1458 1458 1458 1458 1458 1458 1459 1459 1460 1460 1461 1461 1461 1461 1462 1462 1462 1461
1484 1484 1483 1482 1480 1479 1478 1476 1475 1474 1473 1471 1470 1468 1466 1465 1464 1462 1460 1459 1457 1456 1456 1455 1455 1455 1455 1455 1455 1455 1455 1455 1456 1456 1457 1457 1457 1458 1458 1458 1458 1458 1458 1457
1481 1480 1479 1478 1477 1476 1474 1473 1472 1471 1469 1468 1466 1465 1463 1462 1460 1459 1457 1456 1454 1453 1453 1452 1452 1452 1452 1452 1452 1452 1452 1452 1453 1453 1454 1454 1454 1454 1455 1455 1455 1454 1454 1454
1477 1477 1476 1474 1473 1472 1471 1470 1468 1467 1465 1464 1463 1461 1460 1458 1457 1455 1453 1452 1451 1450 1450 1449 1449 1449 1449 1449 1449 1449 1449 1450 1450 1450 1450 1451 1451 1451 1451 1451 1451 1451 1451 1450
1474 1473 1472 1471 1469 1468 1467 1466 1464 1463 1461 1460 1459 1458 1456 1454 1453 1451 1450 1449 1448 1447 1446 1446 1446 1446 1446 1446 1446 1446 1446 1447 1447 1447 1448 1448 1448 1448 1448 1448 1448 1448 1448 1447
1471 1470 1469 1467 1466 1464 1463 1462 1461 1459 1458 1456 1455 1454 1453 1451 1449 1448 1447 1446 1445 1444 1443 1443 1443 1443 1443 1443 1443 1443 1444 1444 1444 1444 1445 1445 1445 1445 1445 1445 1445 1445 1444 1443
1467 1466 1465 1464 1463 1461 1459 1458 1457 1456 1454 1453 1452 1451 1449 1448 1446 1445 1444 1443 1442 1441 1440 1440 1440 1440 1440 1440 1440 1441 1441 1441 1441 1441 1442 1442 1442 1442 1442 1442 1442 1441 1440 1440
1464 1463 1462 1460 1459 1458 1456 1455 1453 1452 1450 1449 1448 1447 1446 1444 1443 1442 1441 1440 1439 1439 1438 1438 1438 1438 1438 1437 1438 1438 1438 1438 1438 1439 1439 1439 1439 1439 1439 1439 1438 1438 1437 1436
1461 1459 1458 1457 1456 1454 1453 1452 1450 1448 1447 1445 1444 1443 1442 1441 1440 1439 1438 1437 1437 1436 1435 1435 1435 1435 1435 1435 1435 1435 1435 1435 1436 1436 1436 1436 1436 1436 1436 1435 1435 1434 1433 1433
1457 1456 1455 1453 1452 1451 1450 1448 1447 1445 1444 1443 1442 1440 1439 1438 1437 1436 1435 1435 1434 1433 1433 1433 1433 1432 1432 1432 1432 1432 1433 1433 1433 1433 1433 1433 1433 1433 1432 1432 1431 1431 1430 1429